Regional Weather Roundup
Issued by NWS State College, PA

Home | Current Version | Previous Version | Text Only | Print | Product List | Glossary On
Versions: 1 2 3 4 5 6 7 8 9 10 11 12 13 14 15 16 17 18 19 20 21 22 23 24 25 26 27 28 29 30 31 32 33 34 35 36 37 38 39 40 41 42 43 44 45 46 47 48 49 50
498
ASUS41 KCTP 271410
RWRCTP

REGIONAL WEATHER ROUNDUP
NATIONAL WEATHER SERVICE STATE COLLEGE PA
1000 AM EDT TUE JUN 27 2017

Note: "fair" indicates few or no clouds below 12,000 feet with no
significant weather and/or obstructions to visibility.

* = STATION THAT DOES NOT REPORT PRECIPITATION /E.G. RAIN...SNOW...ETC/
    THUNDER OR FOG.

PAZ002>004-007>009-013>016-020>023-029>032-271500-
WESTERN PENNSYLVANIA

CITY           SKY/WX    TMP DP  RH WIND       PRES   REMARKS
ERIE           PTSUNNY   60  51  72 W10G18    30.02R
MEADVILLE      PTSUNNY   56  50  80 W10       30.04R
FRANKLIN*      MOSUNNY   57  48  72 W10       30.05S
NEW CASTLE     PTSUNNY   60  48  64 W8G17     30.07S
BEAVER COUNTY  NOT AVBL
BUTLER*        MOSUNNY   63  48  59 W10       30.06F
PITTSBURGH INT MOSUNNY   62  49  62 W10       30.07R
PITTSBURGH     SUNNY     62  46  55 W15       30.06S
INDIANA*       PTSUNNY   63  52  67 W14       30.07S
LATROBE        PTSUNNY   63  54  72 W14       30.08R
WASHINGTON CO* MOSUNNY   63  46  55 W6        30.10S
$$

PAZ004>006-010>012-017>019-024>028-033>037-041-042-045-046-049>053-271500-
CENTRAL PENNSYLVANIA

CITY           SKY/WX    TMP DP  RH WIND       PRES   REMARKS
BRADFORD       CLOUDY    54  49  83 VRB6      30.01F
DUBOIS         PTSUNNY   57  48  72 W12       30.03S
CLEARFIELD     CLOUDY    61  54  77 SW12      30.04S
JOHNSTOWN      MOSUNNY   59  50  72 W10       30.06S
ALTOONA        PTSUNNY   63  51  65 W12G17    30.05S
STATE COLLEGE  MOSUNNY   63  54  72 SW12      30.03S
WILLIAMSPORT   MOSUNNY   67  57  70 MISG      30.00F
SELINSGROVE    MOSUNNY   66  58  75 VRB6      30.02F
FT INDIANTOWN  PTSUNNY   68  56  66 SW6       30.01F
CAPITAL CITY   PTSUNNY   68  55  63 W6        30.02F
HARRISBURG     MOSUNNY   69  55  60 NW12      30.01F
YORK           SUNNY     69  53  56 VRB7      30.03S
$$

PAZ038>040-043-044-047-048-054-055-060>062-067>071-271500-
EASTERN PENNSYLVANIA

CITY           SKY/WX    TMP DP  RH WIND       PRES   REMARKS
SCRANTON       MOSUNNY   62  55  77 VRB3      30.01F
MOUNT POCONO   CLOUDY    58  53  84 W7        30.03F
ALLENTOWN      CLOUDY    67  56  67 NW8       30.02F
QUAKERTOWN*    PTSUNNY   66  59  77 CALM      30.02F
READING        PTSUNNY   67  58  72 CALM      30.01S
LANCASTER      SUNNY     70  59  68 VRB5      30.02S
COATESVILLE    SUNNY     68  59  73 CALM      30.03F
POTTSTOWN      MOSUNNY   66  60  81 VRB3      30.03F
BLUE BELL      PTSUNNY   66  61  82 CALM      30.03S
DOYLESTOWN     CLOUDY    65  59  81 S3        30.01S
WILLOW GROVE   NOT AVBL
NORTH PHILA    CLOUDY    69  61  75 CALM      30.03F
PHILADELPHIA   CLOUDY    67  60  78 S5        30.02F
$$




USA.gov is the U.S. government's official web portal to all federal, state and local government web resources and services.